EW5144 Weather Reports


Display with metric or nautical units.
time (UTC)temp
F
wind
direction
speed
MPH
gust
MPH
rain 1hr
in
rain 24hr
in
rain mn
in
humidity
%
barometer
mb
20260507040033 59 95 0.0 1.0 0.00 0.10 0.00 92 1006.5
20260507034534 59 46 0.0 1.0 0.00 0.10 0.10 92 1006.5
20260507033028 59 104 0.0 4.0 0.00 0.10 0.10 92 1006.4
20260507031529 58 120 0.0 3.0 0.00 0.10 0.10 92 1006.2
20260507030028 58 52 0.0 5.0 0.00 0.10 0.10 92 1006.1
20260507024526 58 94 0.0 1.0 0.00 0.10 0.10 92 1006.1
20260507023026 58 134 0.0 3.0 0.00 0.10 0.10 92 1006.0
20260507021528 58 55 0.0 2.0 0.00 0.10 0.10 92 1006.1
20260507020032 58 319 0.0 1.0 0.00 0.10 0.10 92 1006.0
20260507014522 58 135 0.0 2.0 0.00 0.10 0.10 92 1006.2
20260507013021 58 84 0.0 3.0 0.00 0.10 0.10 92 1006.4
20260507011521 57 127 0.0 4.0 0.00 0.10 0.10 92 1006.6
20260507010025 57 354 0.0 4.0 0.00 0.10 0.10 92 1006.6
20260507004517 57 106 0.0 3.0 0.01 0.10 0.10 92 1006.6
20260507003026 57 115 0.0 4.0 0.01 0.10 0.10 92 1006.6
20260507001523 57 163 0.0 3.0 0.02 0.10 0.10 92 1006.5
20260507000015 57 142 0.0 4.0 0.02 0.10 0.10 92 1006.5
20260506234514 57 139 0.0 3.0 0.01 0.09 0.09 92 1006.3
20260506233013 58 130 1.0 5.0 0.01 0.09 0.09 92 1006.2
20260506231513 58 143 0.0 3.0 0.00 0.08 0.08 92 1006.3
20260506230009 58 333 0.0 3.0 0.00 0.08 0.08 92 1006.5
20260506224508 58 138 0.0 4.0 0.01 0.08 0.08 92 1006.4
20260506223005 59 40 0.0 2.0 0.01 0.08 0.08 92 1006.7
20260506221505 59 165 1.0 5.0 0.02 0.08 0.08 92 1006.8
20260506220004 60 169 0.0 2.0 0.04 0.08 0.08 91 1006.9
20260506214504 60 116 0.0 3.0 0.05 0.07 0.07 91 1007.2
20260506213004 60 68 0.0 4.0 0.06 0.07 0.07 91 1007.1
20260506211600 61 147 0.0 4.0 0.05 0.06 0.06 90 1007.2
20260506210058 61 155 0.0 3.0 0.04 0.04 0.04 89 1007.2
20260506204621 62 119 0.0 5.0 0.02 0.02 0.02 87 1007.4
20260506203057 62 32 0.0 4.0 0.01 0.01 0.01 85 1007.2
20260506201556 63 208 2.0 7.0 0.01 0.01 0.01 82 1007.2
20260506200055 64 132 0.0 3.0 0.00 0.00 0.00 81 1007.3
20260506194604 64 143 0.0 4.0 0.00 0.00 0.00 79 1007.6
20260506193057 65 139 1.0 4.0 0.00 0.00 0.00 76 1007.7
20260506191553 67 149 1.0 5.0 0.00 0.00 0.00 71 1007.7
20260506190050 68 82 0.0 4.0 0.00 0.00 0.00 70 1007.5
20260506184550 68 131 1.0 5.0 0.00 0.00 0.00 69 1007.6
20260506183054 68 124 0.0 4.0 0.00 0.00 0.00 69 1007.6
20260506181548 69 150 0.0 4.0 0.00 0.00 0.00 67 1007.9
20260506180050 70 126 1.0 6.0 0.00 0.00 0.00 65 1008.1
20260506174545 71 84 2.0 7.0 0.00 0.00 0.00 63 1008.4
20260506173048 70 146 1.0 8.0 0.00 0.00 0.00 65 1008.4
20260506171553 71 134 1.0 5.0 0.00 0.00 0.00 64 1008.3
20260506170043 70 117 3.0 10.0 0.00 0.00 0.00 64 1008.4
20260506164541 71 132 2.0 10.0 0.00 0.00 0.00 64 1008.7
20260506163043 71 143 2.0 9.0 0.00 0.00 0.00 64 1008.8
20260506161537 71 139 2.0 7.0 0.00 0.00 0.00 64 1009.1
20260506160035 71 172 1.0 3.0 0.00 0.00 0.00 64 1009.3
20260506154533 71 148 1.0 10.0 0.00 0.00 0.00 64 1009.6
20260506153032 72 46 1.0 9.0 0.00 0.00 0.00 63 1009.8
20260506151536 72 310 2.0 8.0 0.00 0.00 0.00 63 1009.9
20260506150029 71 201 1.0 5.0 0.00 0.00 0.00 64 1009.9
20260506144528 71 183 1.0 6.0 0.00 0.00 0.00 64 1009.7
20260506143026 71 130 1.0 4.0 0.00 0.00 0.00 66 1009.8
20260506141522 70 105 0.0 8.0 0.00 0.00 0.00 67 1009.6
20260506140026 70 137 1.0 6.0 0.00 0.00 0.00 68 1009.7
20260506134515 68 169 1.0 5.0 0.00 0.00 0.00 72 1009.9
20260506133022 67 33 1.0 5.0 0.00 0.00 0.00 74 1010.3
20260506131516 65 341 0.0 5.0 0.00 0.00 0.00 77 1010.3
20260506130006 64 147 0.0 6.0 0.00 0.00 0.00 79 1010.4
20260506124502 63 124 0.0 5.0 0.00 0.00 0.00 81 1010.4
20260506123100 62 149 0.0 6.0 0.00 0.00 0.00 83 1010.4
20260506121557 61 180 1.0 4.0 0.00 0.00 0.00 84 1010.3
20260506120054 61 1 0.0 5.0 0.00 0.00 0.00 85 1010.7
20260506114600 60 34 0.0 4.0 0.00 0.00 0.00 86 1010.9
20260506113059 60 138 0.0 8.0 0.00 0.00 0.00 87 1010.8
20260506111557 59 140 0.0 5.0 0.00 0.00 0.00 87 1010.8
20260506110051 59 101 0.0 5.0 0.00 0.00 0.00 88 1010.8
20260506104557 59 121 0.0 5.0 0.00 0.00 0.00 87 1010.9
20260506103057 59 172 1.0 4.0 0.00 0.00 0.00 87 1010.8
20260506101551 59 169 0.0 5.0 0.00 0.00 0.00 87 1010.7
20260506100048 59 347 0.0 4.0 0.00 0.00 0.00 87 1010.5
20260506094546 59 113 0.0 4.0 0.00 0.00 0.00 87 1010.5
20260506093045 59 126 0.0 4.0 0.00 0.00 0.00 86 1010.5
20260506091544 59 27 0.0 4.0 0.00 0.00 0.00 86 1010.4
20260506090041 59 172 1.0 6.0 0.00 0.00 0.00 85 1010.5
20260506084543 59 195 0.0 4.0 0.00 0.00 0.00 84 1010.5
20260506083039 60 79 0.0 4.0 0.00 0.00 0.00 83 1010.5
20260506081538 60 44 0.0 6.0 0.00 0.00 0.00 83 1010.5
20260506073037 60 92 1.0 5.0 0.00 0.00 0.00 82 1010.4
20260506071633 60 106 1.0 7.0 0.00 0.00 0.00 81 1010.1
20260506061529 61 134 1.0 4.0 0.00 0.00 0.00 78 1010.2
20260506044518 61 108 0.0 4.0 0.00 0.00 0.00 74 1010.6
20260506043017 61 142 0.0 3.0 0.00 0.00 0.00 73 1010.7
20260506041516 61 62 1.0 7.0 0.00 0.00 0.00 73 1010.7